Regional Weather Roundup
Issued by NWS Green Bay, WI

Home | Current Version | Previous Version | Text Only | Print | Product List | Glossary On
Versions: 1 2 3 4 5 6 7 8 9 10 11 12 13 14 15 16 17 18 19 20 21 22 23 24 25 26 27 28 29 30 31 32 33 34 35 36 37 38 39 40 41 42 43 44 45 46 47 48 49 50
000
ASUS43 KGRB 212159
RWRGRB

NORTH-CENTRAL AND NORTHEAST WISCONSIN REGIONAL WEATHER ROUNDUP
NATIONAL WEATHER SERVICE GREEN BAY WI
500 PM CDT TUE OCT 21 2014

WIZ005-009-010>012-018-019-212300-
NORTH CENTRAL WISCONSIN

CITY           SKY/WX    TMP DP  RH WIND       PRES   REMARKS
IRONWOOD       CLEAR     46  37  71 E6        30.20F
MANITOWISH WTR NOT AVBL
ARBOR VITAE    NOT AVBL
EAGLE RIVER    NOT AVBL
LAND O LAKES   NOT AVBL
RHINELANDER    CLEAR     48  34  58 NE3       30.22F
PHILLIPS       NOT AVBL
ANTIGO         NOT AVBL
TOMAHAWK       NOT AVBL
MERRILL        NOT AVBL
$$

WIZ013-073-212300-
NORTHEAST WISCONSIN

CITY           SKY/WX    TMP DP  RH WIND       PRES   REMARKS
IRON MOUNTAIN  CLEAR     50  26  39 N7        30.23R
MARINETTE      CLEAR     50  34  53 E7        30.23S
$$

WIZ017-030-035>037-045-212300-
CENTRAL WISCONSIN

CITY           SKY/WX    TMP DP  RH WIND       PRES   REMARKS
MEDFORD        NOT AVBL
WAUSAU         CLEAR     51  35  54 CALM      30.21R
MOSINEE        NOT AVBL
MARSHFIELD     SUNNY     51  36  56 SE7       30.21S
WISC RAPIDS    SUNNY     51  35  54 E6        30.23S
STEVENS POINT  NOT AVBL
WAUPACA        NOT AVBL
SHAWANO        NOT AVBL
CLINTONVILLE   NOT AVBL
$$

WIZ038-039-048-051-212300-
FOX VALLEY

CITY           SKY/WX    TMP DP  RH WIND       PRES   REMARKS
NWS GREEN BAY  CLEAR     50  36  58 NE6       30.24R
APPLETON       CLEAR     52  32  46 E7        30.23R
OSHKOSH        CLEAR     50  33  52 NE8       30.23S
FOND DU LAC    CLEAR     49  35  58 N9        30.23S
$$

WIZ022-050-052-212300-
EAST CENTRAL WISCONSIN

CITY           SKY/WX    TMP DP  RH WIND       PRES   REMARKS
STURGEON BAY   CLEAR     50  30  46 NE9       30.24R
MANITOWOC      NOT AVBL
SHEBOYGAN      CLEAR     48  38  68 NE12      30.23R
$$

LMZ563-521-522-541>543-212300-
LAKESHORE

STATION/POSITION TIME  TEMP    WIND        PRES    VSBY  WAVE
                       AIR SEA DIR/SP/G                  HT/PER
                 (UTC) (F)     (DEG/KT/KT) (MB)    (MI)  (FT/S)
SHEBOYGAN LKSHOR 2100   47 50   30/ 16/ 17 1023.9S
KEWAUNEE LKSHORE 2100   48      40/  8/ 11 1022.8R
TWO RIVERS CG    2100   48                 1023.2      6   2
NORTHPORT PIER   2100   49     350/ 11/ 13 1023.7R
N MID LAKE BUOY  2100   47 51   40/ 10/ 14 1023.7R         2/ 4
SISTER BAY LKSHO 2100           10/ 10/ 13   N/A
STURGEON BAY CG  2100   49 50   60/  8     1023.6      6   2
CHAMBERS ISLAND  2100   49      30/  9/ 12 1023.7S
MENOMINEE LKSHOR 2100   49      50/  7/ 10 1024.2R
$$



USA.gov is the U.S. government's official web portal to all federal, state and local government web resources and services.